| time (UTC) | temp F | wind direction | speed MPH | gust MPH | rain 1hr in | rain 24hr in | rain mn in | humidity % | barometer mb |
| 20260903211811 | 66 | 248 | 1.0 | 1.0 | 0.00 | 0.00 | 0.00 | ||
| 20260903211312 | 67 | 186 | 1.0 | 1.0 | 0.00 | 0.00 | 0.00 | ||
| 20260903210814 | 67 | 210 | 1.0 | 2.0 | 0.00 | 0.00 | 0.00 | ||
| 20260903210312 | 68 | 249 | 3.0 | 2.0 | 0.00 | 0.00 | 0.00 | ||
| 20260903204816 | 67 | 177 | 1.0 | 2.0 | 0.00 | 0.00 | 0.00 | ||
| 20260903204317 | 68 | 195 | 0.0 | 0.0 | 0.00 | 0.00 | 0.00 | ||
| 20260903202818 | 68 | 252 | 1.0 | 0.0 | 0.00 | 0.00 | 0.00 | ||
| 20260903201821 | 68 | 263 | 1.0 | 1.0 | 0.00 | 0.00 | 0.00 | ||
| 20260903201318 | 68 | 294 | 0.0 | 0.0 | 0.00 | 0.00 | 0.00 | ||
| 20260903200819 | 68 | 194 | 2.0 | 2.0 | 0.00 | 0.00 | 0.00 | ||
| 20260903200321 | 68 | 208 | 2.0 | 2.0 | 0.00 | 0.00 | 0.00 | ||
| 20260903195822 | 68 | 207 | 2.0 | 2.0 | 0.00 | 0.00 | 0.00 | ||
| 20260903195323 | 69 | 167 | 1.0 | 0.0 | 0.00 | 0.00 | 0.00 | ||
| 20260903194821 | 69 | 180 | 2.0 | 1.0 | 0.00 | 0.00 | 0.00 | ||
| 20260903194322 | 69 | 191 | 2.0 | 2.0 | 0.00 | 0.00 | 0.00 | ||
| 20260903193823 | 69 | 177 | 2.0 | 1.0 | 0.00 | 0.00 | 0.00 | ||
| 20260903193325 | 69 | 169 | 2.0 | 2.0 | 0.00 | 0.00 | 0.00 | ||
| 20260903192826 | 69 | 207 | 2.0 | 3.0 | 0.00 | 0.00 | 0.00 | ||
| 20260903192324 | 69 | 255 | 1.0 | 2.0 | 0.00 | 0.00 | 0.00 | ||
| 20260903191826 | 69 | 181 | 0.0 | 0.0 | 0.00 | 0.00 | 0.00 | ||
| 20260903191327 | 69 | 180 | 3.0 | 1.0 | 0.00 | 0.00 | 0.00 | ||
| 20260903190828 | 69 | 173 | 3.0 | 0.0 | 0.00 | 0.00 | 0.00 | ||
| 20260903190330 | 69 | 242 | 1.0 | 0.0 | 0.00 | 0.00 | 0.00 | ||
| 20260903185828 | 69 | 222 | 1.0 | 3.0 | 0.00 | 0.00 | 0.00 | ||
| 20260903185330 | 69 | 210 | 2.0 | 3.0 | 0.00 | 0.00 | 0.00 | ||
| 20260903184831 | 69 | 169 | 7.0 | 6.0 | 0.00 | 0.00 | 0.00 | ||
| 20260903184332 | 69 | 229 | 2.0 | 2.0 | 0.00 | 0.00 | 0.00 | ||
| 20260903183834 | 69 | 198 | 1.0 | 2.0 | 0.00 | 0.00 | 0.00 | ||
| 20260903183330 | 69 | 232 | 2.0 | 1.0 | 0.00 | 0.00 | 0.00 | ||
| 20260903182333 | 69 | 167 | 5.0 | 3.0 | 0.00 | 0.00 | 0.00 | ||
| 20260903181834 | 69 | 255 | 4.0 | 4.0 | 0.00 | 0.00 | 0.00 | ||
| 20260903181335 | 69 | 198 | 4.0 | 3.0 | 0.00 | 0.00 | 0.00 | ||
| 20260903175337 | 69 | 229 | 2.0 | 1.0 | 0.00 | 0.00 | 0.00 | ||
| 20260903174839 | 69 | 280 | 3.0 | 4.0 | 0.00 | 0.00 | 0.00 | ||
| 20260903174336 | 69 | 263 | 2.0 | 1.0 | 0.00 | 0.00 | 0.00 | ||
| 20260903173338 | 70 | 287 | 4.0 | 4.0 | 0.00 | 0.00 | 0.00 | ||
| 20260903172341 | 70 | 262 | 5.0 | 6.0 | 0.00 | 0.00 | 0.00 | ||
| 20260903171838 | 70 | 278 | 6.0 | 5.0 | 0.00 | 0.00 | 0.00 | ||
| 20260903171339 | 70 | 281 | 6.0 | 5.0 | 0.00 | 0.00 | 0.00 | ||
| 20260903170840 | 70 | 273 | 10.0 | 9.0 | 0.00 | 0.00 | 0.00 | ||
| 20260903170342 | 70 | 274 | 12.0 | 17.0 | 0.00 | 0.00 | 0.00 | ||
| 20260903165843 | 70 | 266 | 9.0 | 11.0 | 0.00 | 0.00 | 0.00 | ||
| 20260903165339 | 72 | 259 | 6.0 | 5.0 | 0.00 | 0.00 | 0.00 | ||
| 20260903163842 | 72 | 243 | 9.0 | 7.0 | 0.00 | 0.00 | 0.00 | ||
| 20260903162839 | 73 | 190 | 8.0 | 5.0 | 0.00 | 0.00 | 0.00 | ||
| 20260903162339 | 73 | 212 | 5.0 | 2.0 | 0.00 | 0.00 | 0.00 | ||
| 20260903161840 | 73 | 224 | 5.0 | 5.0 | 0.00 | 0.00 | 0.00 | ||
| 20260903161341 | 73 | 239 | 3.0 | 4.0 | 0.00 | 0.00 | 0.00 | ||
| 20260903155842 | 73 | 240 | 5.0 | 7.0 | 0.00 | 0.00 | 0.00 | ||
| 20260903155343 | 73 | 233 | 6.0 | 4.0 | 0.00 | 0.00 | 0.00 | ||
| 20260903154844 | 73 | 235 | 6.0 | 7.0 | 0.00 | 0.00 | 0.00 | ||
| 20260903153843 | 73 | 246 | 8.0 | 10.0 | 0.00 | 0.00 | 0.00 | ||
| 20260903153344 | 73 | 228 | 6.0 | 7.0 | 0.00 | 0.00 | 0.00 | ||
| 20260903152347 | 74 | 259 | 7.0 | 6.0 | 0.00 | 0.00 | 0.00 | ||
| 20260903151848 | 74 | 228 | 9.0 | 7.0 | 0.00 | 0.00 | 0.00 | ||
| 20260903150847 | 73 | 170 | 5.0 | 3.0 | 0.00 | 0.00 | 0.00 | ||
| 20260903150349 | 73 | 191 | 5.0 | 3.0 | 0.00 | 0.00 | 0.00 | ||
| 20260903145850 | 73 | 210 | 5.0 | 3.0 | 0.00 | 0.00 | 0.00 | ||
| 20260903145351 | 73 | 224 | 4.0 | 5.0 | 0.00 | 0.00 | 0.00 | ||
| 20260903144849 | 74 | 214 | 4.0 | 7.0 | 0.00 | 0.00 | 0.00 | ||
| 20260903144350 | 74 | 212 | 5.0 | 4.0 | 0.00 | 0.00 | 0.00 | ||
| 20260903143353 | 73 | 165 | 5.0 | 6.0 | 0.00 | 0.00 | 0.00 | ||
| 20260903142854 | 73 | 228 | 6.0 | 9.0 | 0.00 | 0.00 | 0.00 | ||
| 20260903142351 | 73 | 243 | 7.0 | 6.0 | 0.00 | 0.00 | 0.00 | ||
| 20260903141852 | 73 | 204 | 7.0 | 8.0 | 0.00 | 0.00 | 0.00 | ||
| 20260903141353 | 73 | 255 | 7.0 | 6.0 | 0.00 | 0.00 | 0.00 | ||
| 20260903140355 | 73 | 255 | 8.0 | 8.0 | 0.00 | 0.00 | 0.00 | ||
| 20260903135354 | 73 | 212 | 6.0 | 8.0 | 0.00 | 0.00 | 0.00 | ||
| 20260903134855 | 73 | 165 | 8.0 | 4.0 | 0.00 | 0.00 | 0.00 | ||
| 20260903134356 | 73 | 250 | 7.0 | 9.0 | 0.00 | 0.00 | 0.00 | ||
| 20260903133857 | 73 | 201 | 8.0 | 8.0 | 0.00 | 0.00 | 0.00 | ||
| 20260903133354 | 74 | 215 | 5.0 | 7.0 | 0.00 | 0.00 | 0.00 | ||
| 20260903132357 | 75 | 201 | 6.0 | 10.0 | 0.00 | 0.00 | 0.00 | ||
| 20260903131858 | 74 | 201 | 9.0 | 9.0 | 0.00 | 0.00 | 0.00 | ||
| 20260903131359 | 74 | 249 | 7.0 | 11.0 | 0.00 | 0.00 | 0.00 | ||
| 20260903130857 | 75 | 229 | 6.0 | 6.0 | 0.00 | 0.00 | 0.00 | ||
| 20260903130358 | 75 | 165 | 7.0 | 7.0 | 0.00 | 0.00 | 0.00 | ||
| 20260903125859 | 76 | 224 | 7.0 | 10.0 | 0.00 | 0.00 | 0.00 | ||
| 20260903124901 | 77 | 190 | 6.0 | 4.0 | 0.00 | 0.00 | 0.00 | ||
| 20260903124359 | 76 | 188 | 8.0 | 6.0 | 0.00 | 0.00 | 0.00 | ||
| 20260903123900 | 75 | 221 | 9.0 | 6.0 | 0.00 | 0.00 | 0.00 | ||
| 20260903123401 | 76 | 219 | 10.0 | 10.0 | 0.00 | 0.00 | 0.00 | ||
| 20260903122902 | 75 | 150 | 9.0 | 4.0 | 0.00 | 0.00 | 0.00 | ||
| 20260903122403 | 76 | 225 | 5.0 | 11.0 | 0.00 | 0.00 | 0.00 | ||
| 20260903121901 | 76 | 203 | 9.0 | 13.0 | 0.00 | 0.00 | 0.00 | ||
| 20260903120404 | 78 | 240 | 9.0 | 12.0 | 0.00 | 0.00 | 0.00 | ||
| 20260903115905 | 77 | 256 | 9.0 | 9.0 | 0.00 | 0.00 | 0.00 | ||
| 20260903115404 | 76 | 191 | 7.0 | 5.0 | 0.00 | 0.00 | 0.00 | ||
| 20260903113907 | 75 | 266 | 9.0 | 9.0 | 0.00 | 0.00 | 0.00 | ||
| 20260903113409 | 75 | 214 | 8.0 | 9.0 | 0.00 | 0.00 | 0.00 | ||
| 20260903112906 | 75 | 195 | 9.0 | 9.0 | 0.00 | 0.00 | 0.00 | ||
| 20260903112408 | 76 | 212 | 5.0 | 9.0 | 0.00 | 0.00 | 0.00 | ||
| 20260903111909 | 74 | 246 | 10.0 | 6.0 | 0.00 | 0.00 | 0.00 | ||
| 20260903111410 | 74 | 249 | 9.0 | 8.0 | 0.00 | 0.00 | 0.00 | ||
| 20260903110410 | 74 | 231 | 7.0 | 6.0 | 0.00 | 0.00 | 0.00 | ||
| 20260903105911 | 74 | 191 | 3.0 | 14.0 | 0.00 | 0.00 | 0.00 | ||
| 20260903105412 | 73 | 212 | 6.0 | 9.0 | 0.00 | 0.00 | 0.00 | ||
| 20260903104914 | 73 | 224 | 6.0 | 7.0 | 0.00 | 0.00 | 0.00 | ||
| 20260903104415 | 73 | 217 | 7.0 | 8.0 | 0.00 | 0.00 | 0.00 | ||
| 20260903103912 | 73 | 197 | 9.0 | 7.0 | 0.00 | 0.00 | 0.00 | ||
| 20260903103414 | 74 | 297 | 5.0 | 7.0 | 0.00 | 0.00 | 0.00 | ||
| 20260903102915 | 73 | 228 | 6.0 | 2.0 | 0.00 | 0.00 | 0.00 | ||
| 20260903101918 | 72 | 269 | 5.0 | 8.0 | 0.00 | 0.00 | 0.00 | ||
| 20260903101415 | 71 | 253 | 7.0 | 7.0 | 0.00 | 0.00 | 0.00 | ||
| 20260903100916 | 71 | 156 | 6.0 | 3.0 | 0.00 | 0.00 | 0.00 | ||
| 20260903100418 | 70 | 219 | 6.0 | 7.0 | 0.00 | 0.00 | 0.00 | ||
| 20260903095919 | 70 | 207 | 5.0 | 3.0 | 0.00 | 0.00 | 0.00 | ||
| 20260903095420 | 70 | 229 | 8.0 | 8.0 | 0.00 | 0.00 | 0.00 | ||
| 20260903094918 | 71 | 226 | 11.0 | 13.0 | 0.00 | 0.00 | 0.00 | ||
| 20260903094419 | 72 | 281 | 6.0 | 7.0 | 0.00 | 0.00 | 0.00 | ||
| 20260903093920 | 71 | 195 | 7.0 | 9.0 | 0.00 | 0.00 | 0.00 | ||
| 20260903093422 | 71 | 217 | 5.0 | 3.0 | 0.00 | 0.00 | 0.00 | ||
| 20260903092923 | 70 | 194 | 7.0 | 4.0 | 0.00 | 0.00 | 0.00 | ||
| 20260903092421 | 70 | 243 | 7.0 | 9.0 | 0.00 | 0.00 | 0.00 | ||
| 20260903091923 | 71 | 240 | 9.0 | 8.0 | 0.00 | 0.00 | 0.00 | ||
| 20260903090925 | 69 | 267 | 5.0 | 3.0 | 0.00 | 0.00 | 0.00 | ||
| 20260903090427 | 70 | 257 | 9.0 | 11.0 | 0.00 | 0.00 | 0.00 | ||
| 20260903085924 | 71 | 280 | 6.0 | 8.0 | 0.00 | 0.00 | 0.00 | ||
| 20260903085425 | 70 | 255 | 6.0 | 7.0 | 0.00 | 0.00 | 0.00 | ||
| 20260903084927 | 70 | 263 | 9.0 | 12.0 | 0.00 | 0.00 | 0.00 | ||
| 20260903084428 | 70 | 252 | 10.0 | 7.0 | 0.00 | 0.00 | 0.00 | ||
| 20260903083929 | 69 | 240 | 6.0 | 8.0 | 0.00 | 0.00 | 0.00 | ||
| 20260903083428 | 70 | 240 | 7.0 | 5.0 | 0.00 | 0.00 | 0.00 | ||
| 20260903082929 | 69 | 224 | 9.0 | 7.0 | 0.00 | 0.00 | 0.00 | ||
| 20260903082430 | 69 | 236 | 7.0 | 7.0 | 0.00 | 0.00 | 0.00 | ||
| 20260903081433 | 68 | 257 | 8.0 | 6.0 | 0.00 | 0.00 | 0.00 | ||
| 20260903080931 | 68 | 238 | 7.0 | 8.0 | 0.00 | 0.00 | 0.00 | ||
| 20260903080432 | 68 | 204 | 8.0 | 8.0 | 0.00 | 0.00 | 0.00 | ||
| 20260903075933 | 68 | 246 | 4.0 | 3.0 | 0.00 | 0.00 | 0.00 | ||
| 20260903075435 | 71 | 214 | 6.0 | 6.0 | 0.00 | 0.00 | 0.00 | ||
| 20260903074936 | 69 | 181 | 3.0 | 6.0 | 0.00 | 0.00 | 0.00 | ||
| 20260903074434 | 68 | 217 | 4.0 | 6.0 | 0.00 | 0.00 | 0.00 | ||
| 20260903073436 | 66 | 176 | 4.0 | 3.0 | 0.00 | 0.00 | 0.00 | ||
| 20260903072938 | 65 | 191 | 5.0 | 3.0 | 0.00 | 0.00 | 0.00 | ||
| 20260903072439 | 64 | 276 | 3.0 | 2.0 | 0.00 | 0.00 | 0.00 | ||
| 20260903071936 | 64 | 159 | 3.0 | 0.0 | 0.00 | 0.00 | 0.00 | ||
| 20260903071438 | 64 | 181 | 1.0 | 1.0 | 0.00 | 0.00 | 0.00 | ||
| 20260903065942 | 62 | 210 | 3.0 | 4.0 | 0.00 | 0.00 | 0.00 | ||
| 20260903063945 | 60 | 218 | 3.0 | 3.0 | 0.00 | 0.00 | 0.00 | ||
| 20260903063446 | 60 | 219 | 4.0 | 3.0 | 0.00 | 0.00 | 0.00 | ||
| 20260903062944 | 60 | 184 | 4.0 | 2.0 | 0.00 | 0.00 | 0.00 | ||
| 20260903062445 | 59 | 177 | 3.0 | 2.0 | 0.00 | 0.00 | 0.00 | ||
| 20260903061946 | 59 | 174 | 2.0 | 3.0 | 0.00 | 0.00 | 0.00 | ||
| 20260903061448 | 58 | 191 | 2.0 | 3.0 | 0.00 | 0.00 | 0.00 | ||
| 20260903060949 | 58 | 188 | 2.0 | 2.0 | 0.00 | 0.00 | 0.00 | ||
| 20260903060447 | 57 | 153 | 2.0 | 2.0 | 0.00 | 0.00 | 0.00 | ||
| 20260903054949 | 55 | 226 | 4.0 | 5.0 | 0.00 | 0.00 | 0.00 | ||
| 20260903054450 | 54 | 240 | 5.0 | 5.0 | 0.00 | 0.00 | 0.00 | ||
| 20260903053948 | 54 | 221 | 2.0 | 2.0 | 0.00 | 0.00 | 0.00 | ||
| 20260903053449 | 54 | 203 | 2.0 | 2.0 | 0.00 | 0.00 | 0.00 | ||
| 20260903050455 | 54 | 190 | 0.0 | 0.0 | 0.00 | 0.00 | 0.00 | ||
| 20260903045458 | 53 | 152 | 0.0 | 0.0 | 0.00 | 0.00 | 0.00 | ||
| 20260903044956 | 53 | 152 | 0.0 | 0.0 | 0.00 | 0.00 | 0.00 | ||
| 20260903043959 | 55 | 176 | 0.0 | 0.0 | 0.00 | 0.00 | 0.00 | ||
| 20260903042500 | 55 | 176 | 0.0 | 0.0 | 0.00 | 0.00 | 0.00 | ||
| 20260903042001 | 55 | 176 | 0.0 | 0.0 | 0.00 | 0.00 | 0.00 | ||
| 20260903041502 | 55 | 176 | 0.0 | 0.0 | 0.00 | 0.00 | 0.00 | ||
| 20260903040505 | 56 | 176 | 0.0 | 0.0 | 0.00 | 0.00 | 0.00 | ||
| 20260903040003 | 56 | 176 | 0.0 | 0.0 | 0.00 | 0.00 | 0.00 | ||
| 20260903035504 | 56 | 176 | 0.0 | 0.0 | 0.00 | 0.00 | 0.00 | ||
| 20260903035005 | 55 | 176 | 0.0 | 0.0 | 0.00 | 0.00 | 0.00 | ||
| 20260903034507 | 55 | 176 | 0.0 | 0.0 | 0.00 | 0.00 | 0.00 | ||
| 20260903034008 | 53 | 176 | 1.0 | 0.0 | 0.00 | 0.00 | 0.00 | ||
| 20260903033008 | 53 | 215 | 2.0 | 2.0 | 0.00 | 0.00 | 0.00 | ||
| 20260903032011 | 54 | 232 | 3.0 | 3.0 | 0.00 | 0.00 | 0.00 | ||
| 20260903031513 | 55 | 195 | 4.0 | 4.0 | 0.00 | 0.00 | 0.00 | ||
| 20260903031011 | 55 | 228 | 0.0 | 0.0 | 0.00 | 0.00 | 0.00 | ||
| 20260903030513 | 56 | 228 | 0.0 | 0.0 | 0.00 | 0.00 | 0.00 | ||
| 20260903030014 | 56 | 228 | 0.0 | 0.0 | 0.00 | 0.00 | 0.00 | ||
| 20260903025515 | 56 | 228 | 0.0 | 0.0 | 0.00 | 0.00 | 0.00 | ||
| 20260903025017 | 56 | 228 | 0.0 | 0.0 | 0.00 | 0.00 | 0.00 | ||
| 20260903024017 | 55 | 228 | 0.0 | 0.0 | 0.00 | 0.00 | 0.00 | ||
| 20260903023518 | 55 | 228 | 0.0 | 0.0 | 0.00 | 0.00 | 0.00 | ||
| 20260903022521 | 56 | 228 | 0.0 | 0.0 | 0.00 | 0.00 | 0.00 | ||
| 20260903020524 | 58 | 200 | 2.0 | 1.0 | 0.00 | 0.00 | 0.00 | ||
| 20260903020025 | 57 | 188 | 1.0 | 2.0 | 0.00 | 0.00 | 0.00 | ||
| 20260903015523 | 57 | 173 | 1.0 | 1.0 | 0.00 | 0.00 | 0.00 | ||
| 20260903015024 | 55 | 200 | 3.0 | 3.0 | 0.00 | 0.00 | 0.00 | ||
| 20260903014027 | 57 | 114 | 2.0 | 0.0 | 0.00 | 0.00 | 0.00 | ||
| 20260903013528 | 58 | 159 | 1.0 | 2.0 | 0.00 | 0.00 | 0.00 | ||
| 20260903013026 | 58 | 167 | 2.0 | 1.0 | 0.00 | 0.00 | 0.00 | ||
| 20260903012527 | 59 | 190 | 2.0 | 3.0 | 0.00 | 0.00 | 0.00 | ||
| 20260903012028 | 59 | 156 | 0.0 | 1.0 | 0.00 | 0.00 | 0.00 | ||
| 20260903011529 | 59 | 156 | 0.0 | 0.0 | 0.00 | 0.00 | 0.00 | ||
| 20260903011031 | 60 | 156 | 0.0 | 0.0 | 0.00 | 0.00 | 0.00 | ||
| 20260903010529 | 59 | 160 | 1.0 | 1.0 | 0.00 | 0.00 | 0.00 | ||
| 20260903010030 | 59 | 205 | 2.0 | 2.0 | 0.00 | 0.00 | 0.00 | ||
| 20260903005033 | 59 | 203 | 2.0 | 2.0 | 0.00 | 0.00 | 0.00 | ||
| 20260903004534 | 59 | 200 | 2.0 | 2.0 | 0.00 | 0.00 | 0.00 | ||
| 20260903003534 | 58 | 201 | 2.0 | 1.0 | 0.00 | 0.00 | 0.00 | ||
| 20260903003035 | 59 | 212 | 3.0 | 3.0 | 0.00 | 0.00 | 0.00 | ||
| 20260903001536 | 59 | 219 | 3.0 | 3.0 | 0.00 | 0.00 | 0.00 | ||
| 20260903000040 | 59 | 221 | 2.0 | 3.0 | 0.00 | 0.00 | 0.00 | ||
| 20260902235542 | 59 | 198 | 2.0 | 2.0 | 0.00 | 0.00 | 0.00 | ||
| 20260902235040 | 60 | 218 | 2.0 | 3.0 | 0.00 | 0.00 | 0.00 | ||
| 20260902234542 | 60 | 195 | 2.0 | 2.0 | 0.00 | 0.00 | 0.00 | ||
| 20260902234043 | 61 | 177 | 2.0 | 2.0 | 0.00 | 0.00 | 0.00 | ||
| 20260902233545 | 61 | 191 | 2.0 | 1.0 | 0.00 | 0.00 | 0.00 | ||
| 20260902233046 | 62 | 197 | 1.0 | 2.0 | 0.00 | 0.00 | 0.00 | ||
| 20260902232545 | 62 | 201 | 1.0 | 2.0 | 0.00 | 0.00 | 0.00 | ||
| 20260902232046 | 61 | 224 | 1.0 | 1.0 | 0.00 | 0.00 | 0.00 | ||
| 20260902231547 | 62 | 229 | 3.0 | 2.0 | 0.00 | 0.00 | 0.00 | ||
| 20260902225051 | 62 | 195 | 3.0 | 2.0 | 0.00 | 0.00 | 0.00 | ||
| 20260902224553 | 62 | 239 | 2.0 | 2.0 | 0.00 | 0.00 | 0.00 | ||
| 20260902224054 | 62 | 233 | 2.0 | 3.0 | 0.00 | 0.00 | 0.00 | ||
| 20260902223054 | 63 | 225 | 2.0 | 2.0 | 0.00 | 0.00 | 0.00 | ||
| 20260902222555 | 63 | 238 | 1.0 | 1.0 | 0.00 | 0.00 | 0.00 | ||
| 20260902222057 | 63 | 252 | 2.0 | 1.0 | 0.00 | 0.00 | 0.00 | ||
| 20260902221558 | 64 | 257 | 2.0 | 2.0 | 0.00 | 0.00 | 0.00 | ||
| 20260902221056 | 63 | 222 | 2.0 | 2.0 | 0.00 | 0.00 | 0.00 | ||
| 20260902220558 | 63 | 236 | 2.0 | 2.0 | 0.00 | 0.00 | 0.00 | ||
| 20260902215601 | 65 | 173 | 1.0 | 1.0 | 0.00 | 0.00 | 0.00 | ||
| 20260902215102 | 65 | 115 | 0.0 | 1.0 | 0.00 | 0.00 | 0.00 | ||
| 20260902214600 | 64 | 195 | 1.0 | 1.0 | 0.00 | 0.00 | 0.00 | ||
| 20260902214101 | 64 | 200 | 2.0 | 2.0 | 0.00 | 0.00 | 0.00 | ||
| 20260902213104 | 64 | 200 | 0.0 | 0.0 | 0.00 | 0.00 | 0.00 | ||
| 20260902212605 | 65 | 200 | 0.0 | 0.0 | 0.00 | 0.00 | 0.00 | ||
| 20260902212103 | 65 | 200 | 0.0 | 0.0 | 0.00 | 0.00 | 0.00 |